Regional Weather Roundup
Issued by NWS

Home | Current Version | Previous Version | Graphics & Text | Print | Product List | Glossary On
Versions: 1 2 3 4 5 6 7 8 9 10 11 12 13 14 15 16 17 18 19 20 21 22 23 24 25 26 27 28 29 30 31 32 33 34 35 36 37 38 39 40 41 42 43 44 45 46 47 48 49 50
431
ASUS45 KSLC 221110
RWRUT

UTAH REGIONAL WEATHER ROUNDUP
NATIONAL WEATHER SERVICE SALT LAKE CITY UT
400 AM MST MON JAN 22 2018

UTZ001>011-023>025-221200-

NORTHERN UTAH

CITY           SKY/WX    TMP DP  RH WIND       PRES   REMARKS
BRIGHAM CITY   PTCLDY    24  19  81 N3        30.30F
HILL AFB       PTCLDY    18  10  70 E16       30.27S WCI   4
LOGAN          PTCLDY    10   4  76 E5        30.29F WCI   2
OGDEN          PTCLDY    19  12  74 S9        30.28R WCI   8
SALT LAKE CITY PTCLDY    26  18  71 SE12      30.29F WCI  16
TOOELE VALLEY  PTCLDY    21  16  79 S20       30.29S WCI   6
WENDOVER       PTCLDY    20  14  77 NE8       30.28R WCI  10
HEBER CITY       N/A      5   1  85 SE3       30.28F
WEST JORDAN    PTCLDY    22  20  93 S12       30.29F WCI  10

$$

UTZ011>015-024>027-221200-

CENTRAL/NORTHEAST UTAH

CITY           SKY/WX    TMP DP  RH WIND       PRES   REMARKS
PROVO AIRPORT  PTCLDY    12   8  84 SE6       30.34S WCI   3
MOAB/CANYONLAN CLEAR     21  17  84 CALM      30.24R
DELTA          MOCLDY    12  10  92 S3        30.31F
PRICE          PTCLDY    12   5  73 NE3       30.19S
RICHFIELD      CLEAR      1   1 100 CALM      30.32F
ROOSEVELT      MOCLDY    14  10  85 NW3       30.26R
VERNAL         MOCLDY     4   0  83 NE3       30.23R

$$

UTZ013>016-019>022-027-221200-

SOUTHERN UTAH

CITY           SKY/WX    TMP DP  RH WIND       PRES   REMARKS
BRYCE CANYON   PTCLDY    -3  -6  87 NW3       30.22S
CEDAR CITY     PTCLDY    -3  -5  90 SW3       30.27S
MILFORD        MOCLDY     1  -3  83 S6        30.29F WCI -10
ST GEORGE      MOSUNNY   31  22  69 CALM      30.34F
HANKSVILLE     PTCLDY    12   3  67 CALM      30.29S
KANAB          CLEAR     14  10  85 NE5       30.33S WCI   6
BLANDING         N/A     14   7  73 NE6       30.28S WCI   5

$$

REGIONAL REPORTS     COLORADO/ARIZONA

CITY           SKY/WX    TMP DP  RH WIND       PRES   REMARKS
CRAIG, CO      PTCLDY    -1  -6  79 CALM      30.21R
GRAND JUNCTION PTCLDY    12  10  92 E8        30.25R WCI   0
RIFLE, CO      CLOUDY    18  11  74 CALM      30.26R
MONTROSE, CO   PTCLDY    13   9  84 SE7       30.27R WCI   3
CORTEZ, CO     PTCLDY     4   1  88 NE9       30.19R WCI -10
COLORADO CITY    N/A     16  14  93 CALM      30.31S
PAGE, AZ       PTCLDY    27  11  51 CALM      30.27S
GRAND CANYON   PTCLDY     3   0  87 NE3       30.23S
KINGMAN, AZ    PTCLDY   N/A N/A N/A E6        30.28S
FLAGSTAFF, AZ  MOCLDY     2  -4  76 CALM      30.19S

$$

REGIONAL REPORTS    NEVADA/IDAHO/WYOMING

CITY           SKY/WX    TMP DP  RH WIND       PRES   REMARKS
LAS VEGAS, NV  CLOUDY    38  24  57 S3        30.31S
ELY, NY        PTCLDY     0  -4  83 S17       30.25S WCI -21
ELKO, NV       LGT SNOW  27  25  92 S6        30.24S FOG     WCI  20
POCATELLO, ID  MOCLDY    28  18  66 E3        30.20F
BURLEY, ID     CLOUDY    34  18  52 SW9       30.20R WCI  27
EVANSTON, WY   PTCLDY     5   3  91 SW12      30.18F WCI -11
ROCK SPRINGS,  PTCLDY    10   5  80 W20       30.14R WCI  -9

$$




USA.gov is the U.S. government's official web portal to all federal, state and local government web resources and services.